N7MLR Weather Reports


time (UTC)temp
C
wind
direction
speed
KPH
gust
KPH
rain 1hr
cm
rain 24hr
cm
rain mn
cm
humidity
%
barometer
mb
20260510061210 19 201 0.0 0.0 0.00 0.00 0.00 94 1011.4
20260510060706 19 201 0.0 0.0 0.00 0.00 0.00 94 1011.2
20260510060203 19 202 0.0 0.0 0.00 0.00 0.00 94 1011.5
20260510055659 19 201 0.0 1.6 0.00 0.00 0.00 94 1011.3
20260510055157 19 202 0.0 0.0 0.00 0.00 0.00 94 1011.6
20260510054653 19 202 0.0 0.0 0.00 0.00 0.00 93 1011.3
20260510054149 19 202 0.0 0.0 0.00 0.00 0.00 93 1011.3
20260510053648 19 201 0.0 0.0 0.00 0.00 0.00 93 1011.7
20260510053145 19 202 0.0 0.0 0.00 0.00 0.00 93 1011.3
20260510052641 19 202 0.0 0.0 0.00 0.00 0.00 93 1011.2
20260510052137 19 202 0.0 0.0 0.00 0.00 0.00 92 1011.4
20260510051633 19 202 0.0 0.0 0.00 0.00 0.00 92 1011.3
20260510051129 19 202 0.0 0.0 0.00 0.00 0.00 92 1011.2
20260510050627 19 202 0.0 0.0 0.00 0.00 0.00 91 1011.1
20260510050124 20 202 0.0 0.0 0.00 0.00 0.00 91 1011.1
20260510045621 20 202 0.0 0.0 0.00 0.03 0.03 90 1011.1
20260510045117 20 202 0.0 0.0 0.00 0.03 0.03 90 1010.8
20260510044614 20 202 0.0 0.0 0.00 0.03 0.03 90 1010.8
20260510044111 20 202 0.0 0.0 0.00 0.03 0.03 90 1010.9
20260510043606 20 202 0.0 0.0 0.00 0.03 0.03 89 1010.8
20260510043103 20 202 0.0 0.0 0.00 0.03 0.03 89 1010.9
20260510042601 20 202 0.0 0.0 0.00 0.03 0.03 89 1010.8
20260510042057 20 202 0.0 0.0 0.00 0.03 0.03 88 1010.8
20260510041554 20 202 0.0 0.0 0.00 0.03 0.03 88 1010.6
20260510041051 21 202 0.0 0.0 0.00 0.03 0.03 87 1010.8
20260510040548 21 202 0.0 0.0 0.00 0.03 0.03 87 1010.9
20260510040044 21 202 0.0 0.0 0.00 0.03 0.03 86 1010.7
20260510035540 21 202 0.0 0.0 0.00 0.03 0.03 86 1010.7
20260510035040 21 202 0.0 0.0 0.00 0.03 0.03 86 1010.8
20260510034539 21 202 0.0 0.0 0.00 0.03 0.03 85 1010.7
20260510034035 21 202 0.0 0.0 0.00 0.03 0.03 85 1010.6
20260510033531 21 202 0.0 0.0 0.00 0.03 0.03 84 1010.7
20260510033029 22 202 0.0 0.0 0.00 0.03 0.03 83 1010.3
20260510032525 22 202 0.0 0.0 0.00 0.03 0.03 81 1010.4
20260510032020 22 202 0.0 0.0 0.00 0.03 0.03 80 1010.2
20260510031516 22 202 1.6 1.6 0.00 0.03 0.03 79 1010.3
20260510031012 23 202 1.6 1.6 0.00 0.03 0.03 79 1010.2
20260510030508 22 202 1.6 1.6 0.00 0.03 0.03 79 1010.3
20260510030005 22 205 0.0 1.6 0.00 0.03 0.03 79 1010.1
20260510025502 22 205 0.0 0.0 0.00 0.03 0.03 79 1010.1
20260510024959 23 205 0.0 0.0 0.00 0.03 0.03 78 1010.1
20260510024450 23 205 0.0 0.0 0.00 0.03 0.03 77 1010.1
20260510023946 23 205 0.0 0.0 0.00 0.03 0.03 75 1009.9
20260510023443 23 205 0.0 0.0 0.00 0.03 0.03 74 1009.8
20260510022940 23 205 0.0 0.0 0.00 0.03 0.03 73 1009.8
20260510022439 24 205 0.0 0.0 0.00 0.03 0.03 72 1009.6
20260510021938 24 205 0.0 0.0 0.00 0.03 0.03 71 1009.9
20260510021436 25 205 0.0 0.0 0.00 0.03 0.03 69 1009.8
20260510020933 25 205 0.0 0.0 0.00 0.03 0.03 68 1009.7
20260510020427 25 205 0.0 0.0 0.00 0.03 0.03 66 1009.9
20260510015923 25 207 0.0 1.6 0.00 0.03 0.03 65 1009.8
20260510015419 26 205 1.6 1.6 0.00 0.03 0.03 63 1009.5
20260510014914 26 208 1.6 1.6 0.00 0.03 0.03 62 1009.5
20260510014412 26 209 1.6 1.6 0.00 0.03 0.03 61 1009.5
20260510013908 26 218 1.6 1.6 0.00 0.03 0.03 59 1009.2
20260510013403 26 212 0.0 1.6 0.00 0.03 0.03 58 1009.4
20260510012858 26 223 0.0 1.6 0.00 0.03 0.03 59 1009.2
20260510012354 26 240 0.0 1.6 0.00 0.03 0.03 60 1009.0
20260510011849 26 240 0.0 1.6 0.00 0.03 0.03 60 1009.2
20260510011344 26 240 0.0 0.0 0.00 0.03 0.03 60 1009.0
20260510010840 27 240 0.0 0.0 0.00 0.03 0.03 58 1008.9
20260510010338 27 240 0.0 0.0 0.00 0.03 0.03 57 1008.9
20260510005834 27 237 0.0 1.6 0.00 0.03 0.03 56 1008.7
20260510005331 27 236 3.2 3.2 0.00 0.03 0.03 54 1008.8
20260510004829 27 245 1.6 1.6 0.00 0.03 0.03 55 1008.7
20260510004326 28 230 0.0 0.0 0.00 0.03 0.03 59 1008.7
20260510003823 28 244 1.6 3.2 0.00 0.03 0.03 60 1008.5
20260510003320 29 235 1.6 1.6 0.00 0.03 0.03 60 1008.5
20260510002819 29 231 1.6 1.6 0.00 0.03 0.03 59 1008.5
20260510002316 30 244 1.6 3.2 0.00 0.03 0.03 58 1008.3
20260510001813 30 240 1.6 3.2 0.00 0.03 0.03 58 1008.3
20260510001311 30 233 1.6 1.6 0.00 0.03 0.03 58 1008.4
20260510000806 30 220 1.6 1.6 0.00 0.03 0.03 59 1008.0
20260510000305 29 239 1.6 3.2 0.00 0.03 0.03 60 1008.0
20260509235802 29 233 1.6 1.6 0.00 0.03 0.03 60 1008.0
20260509235258 29 238 0.0 1.6 0.00 0.03 0.03 59 1008.2
20260509234754 29 236 3.2 4.8 0.00 0.03 0.03 59 1008.0
20260509234250 29 244 1.6 1.6 0.00 0.03 0.03 59 1008.2
20260509233749 29 256 4.8 8.0 0.00 0.03 0.03 59 1008.0
20260509233246 29 238 1.6 1.6 0.00 0.03 0.03 61 1008.0
20260509232742 30 284 1.6 3.2 0.00 0.03 0.03 60 1008.0
20260509232240 30 249 3.2 3.2 0.00 0.03 0.03 60 1007.9
20260509231736 30 277 1.6 3.2 0.00 0.03 0.03 58 1008.2
20260509231233 30 214 1.6 3.2 0.00 0.03 0.03 59 1007.9
20260509230730 29 229 1.6 3.2 0.00 0.03 0.03 60 1008.0
20260509230227 29 228 0.0 1.6 0.00 0.03 0.03 61 1007.9
20260509225722 30 254 3.2 4.8 0.00 0.03 0.03 60 1008.0
20260509225218 29 223 1.6 1.6 0.00 0.03 0.03 60 1007.9
20260509224714 29 225 1.6 1.6 0.00 0.03 0.03 60 1008.2
20260509224211 29 209 3.2 3.2 0.00 0.03 0.03 58 1007.9
20260509223708 30 221 0.0 1.6 0.00 0.03 0.03 58 1008.2
20260509223205 30 224 1.6 3.2 0.00 0.03 0.03 56 1008.2
20260509222702 30 253 4.8 4.8 0.00 0.03 0.03 53 1007.9
20260509222158 31 179 1.6 1.6 0.00 0.03 0.03 50 1007.8
20260509221654 31 178 0.0 0.0 0.00 0.03 0.03 49 1007.8
20260509221149 32 178 0.0 0.0 0.00 0.03 0.03 49 1007.7
20260509220646 32 177 0.0 0.0 0.00 0.03 0.03 47 1008.0
20260509220142 32 177 0.0 0.0 0.00 0.03 0.03 46 1007.8
20260509215638 32 182 1.6 1.6 0.00 0.03 0.03 47 1008.0
20260509215135 32 196 0.0 1.6 0.00 0.03 0.03 49 1008.0
20260509214632 33 176 4.8 4.8 0.00 0.03 0.03 46 1008.2
20260509214129 33 187 1.6 1.6 0.00 0.03 0.03 46 1008.2
20260509213625 32 196 1.6 1.6 0.00 0.03 0.03 49 1008.0
20260509213121 32 197 1.6 1.6 0.00 0.03 0.03 49 1008.2
20260509212618 33 189 1.6 3.2 0.00 0.03 0.03 48 1008.2
20260509212110 33 188 3.2 3.2 0.00 0.03 0.03 45 1008.3
20260509211606 33 180 0.0 1.6 0.00 0.03 0.03 46 1008.2
20260509211103 33 166 1.6 3.2 0.00 0.03 0.03 47 1008.3
20260509210559 34 202 1.6 1.6 0.00 0.03 0.03 47 1008.5
20260509210056 33 167 3.2 3.2 0.00 0.03 0.03 47 1008.5
20260509205550 32 200 1.6 1.6 0.00 0.03 0.03 49 1008.6
20260509205045 32 185 1.6 3.2 0.00 0.03 0.03 50 1008.6
20260509204542 32 178 1.6 3.2 0.00 0.03 0.03 52 1008.6
20260509204038 32 147 1.6 3.2 0.00 0.03 0.03 52 1008.5
20260509203534 33 182 3.2 3.2 0.00 0.03 0.03 53 1008.7
20260509203033 32 191 0.0 0.0 0.00 0.03 0.03 52 1008.8
20260509202527 31 194 0.0 0.0 0.00 0.03 0.03 54 1008.9
20260509202023 31 198 1.6 1.6 0.00 0.03 0.03 53 1008.8
20260509201518 32 198 0.0 1.6 0.00 0.03 0.03 53 1008.9
20260509201015 32 208 1.6 1.6 0.00 0.03 0.03 54 1009.1
20260509200510 32 184 0.0 1.6 0.00 0.03 0.03 51 1009.1
20260509200007 33 178 0.0 1.6 0.00 0.03 0.03 53 1009.2
20260509195502 32 191 1.6 1.6 0.00 0.03 0.03 54 1009.4
20260509195001 32 191 1.6 3.2 0.00 0.03 0.03 55 1009.2
20260509194458 32 160 3.2 3.2 0.00 0.03 0.03 54 1009.3
20260509193955 32 176 1.6 3.2 0.00 0.03 0.03 52 1009.3
20260509193454 32 165 1.6 1.6 0.00 0.03 0.03 52 1009.6
20260509192951 32 200 0.0 1.6 0.00 0.03 0.03 55 1009.2
20260509192448 31 218 1.6 1.6 0.00 0.03 0.03 58 1009.7
20260509191943 30 219 1.6 1.6 0.00 0.03 0.03 62 1009.9
20260509191438 30 214 1.6 1.6 0.00 0.03 0.03 62 1010.1
20260509190934 30 194 0.0 0.0 0.00 0.03 0.03 60 1010.1
20260509190432 31 194 0.0 1.6 0.00 0.03 0.03 57 1010.4
20260509185930 32 175 1.6 1.6 0.00 0.03 0.03 56 1010.4
20260509185426 31 205 1.6 1.6 0.00 0.03 0.03 59 1010.3
20260509184923 32 191 1.6 1.6 0.00 0.03 0.03 58 1010.3
20260509184420 32 116 3.2 4.8 0.00 0.03 0.03 56 1010.4
20260509183917 31 183 1.6 1.6 0.00 0.03 0.03 61 1010.2
20260509183411 32 146 4.8 4.8 0.00 0.03 0.03 58 1010.4
20260509182908 32 161 3.2 3.2 0.00 0.03 0.03 58 1010.4
20260509182405 31 175 1.6 3.2 0.00 0.03 0.03 58 1010.6
20260509181902 31 179 3.2 3.2 0.00 0.03 0.03 60 1010.5
20260509181400 31 181 1.6 3.2 0.00 0.03 0.03 62 1010.7
20260509180857 30 191 0.0 1.6 0.00 0.03 0.03 64 1010.7
20260509180352 30 196 1.6 1.6 0.00 0.03 0.03 64 1010.9
20260509175850 30 197 1.6 1.6 0.00 0.03 0.03 64 1010.7
20260509175345 29 185 1.6 1.6 0.00 0.03 0.03 66 1010.9
20260509174841 30 184 3.2 3.2 0.00 0.03 0.03 66 1010.9
20260509174338 30 217 1.6 1.6 0.00 0.03 0.03 67 1010.8
20260509173834 30 132 3.2 3.2 0.00 0.03 0.03 66 1010.7
20260509173329 30 226 1.6 3.2 0.00 0.03 0.03 65 1010.9
20260509172825 29 161 3.2 4.8 0.00 0.03 0.03 69 1011.2
20260509172322 30 172 4.8 4.8 0.00 0.03 0.03 67 1011.3
20260509171819 29 220 1.6 1.6 0.00 0.03 0.03 68 1011.3
20260509171314 30 189 1.6 1.6 0.00 0.03 0.03 69 1011.2
20260509170811 30 165 3.2 3.2 0.00 0.03 0.03 68 1011.4
20260509170307 28 176 1.6 3.2 0.00 0.03 0.03 72 1011.2
20260509165806 28 180 1.6 3.2 0.00 0.03 0.03 74 1011.2
20260509165301 28 185 1.6 1.6 0.00 0.03 0.03 74 1011.4
20260509164757 28 189 1.6 1.6 0.00 0.03 0.03 75 1011.5
20260509164253 27 176 1.6 3.2 0.00 0.03 0.03 76 1011.4
20260509163750 27 195 1.6 1.6 0.00 0.03 0.03 78 1011.6
20260509163247 26 191 1.6 1.6 0.00 0.03 0.03 78 1011.4
20260509162746 27 193 0.0 0.0 0.00 0.03 0.03 78 1011.5
20260509162239 27 224 0.0 1.6 0.00 0.03 0.03 78 1011.2
20260509161736 27 229 1.6 3.2 0.00 0.03 0.03 78 1011.7
20260509161232 27 192 1.6 1.6 0.00 0.03 0.03 78 1011.7
20260509160727 26 181 0.0 0.0 0.00 0.03 0.03 83 1011.7
20260509160224 25 184 0.0 0.0 0.00 0.03 0.03 85 1011.8
20260509155718 25 185 1.6 1.6 0.00 0.03 0.03 84 1012.1
20260509155216 26 198 1.6 3.2 0.00 0.03 0.03 82 1011.7
20260509154712 25 215 1.6 1.6 0.00 0.03 0.03 86 1011.8
20260509154209 24 223 0.0 0.0 0.00 0.03 0.03 90 1012.1
20260509153706 24 223 0.0 1.6 0.00 0.03 0.03 90 1012.0
20260509153202 23 232 1.6 1.6 0.00 0.03 0.03 90 1011.5
20260509152658 23 231 0.0 0.0 0.00 0.03 0.03 91 1011.6
20260509152155 23 220 1.6 1.6 0.00 0.03 0.03 91 1011.7
20260509151652 23 194 0.0 0.0 0.00 0.03 0.03 91 1011.5
20260509151149 23 222 3.2 3.2 0.00 0.03 0.03 91 1011.4
20260509150647 23 182 1.6 3.2 0.00 0.03 0.03 93 1011.7
20260509150145 23 231 1.6 3.2 0.00 0.03 0.03 94 1011.3
20260509145641 23 265 3.2 3.2 0.00 0.03 0.03 94 1011.3
20260509145136 23 217 3.2 3.2 0.00 0.03 0.03 96 1011.4
20260509144633 22 208 3.2 4.8 0.00 0.03 0.03 97 1011.5
20260509144130 22 218 1.6 1.6 0.00 0.03 0.03 98 1011.6
20260509143627 22 190 1.6 1.6 0.00 0.03 0.03 99 1011.8
20260509143125 22 190 0.0 0.0 0.00 0.03 0.03 99 1011.6
20260509142620 21 191 0.0 0.0 0.00 0.03 0.03 99 1011.3
20260509142117 22 191 0.0 0.0 0.00 0.03 0.03 99 1011.3
20260509141613 22 191 1.6 1.6 0.00 0.03 0.03 99 1011.4
20260509141109 22 190 0.0 1.6 0.00 0.03 0.03 99 1011.5
20260509140606 22 189 1.6 3.2 0.00 0.03 0.03 99 1011.5
20260509140104 22 197 0.0 0.0 0.00 0.03 0.03 99 1011.6
20260509135601 22 196 0.0 1.6 0.00 0.03 0.03 99 1011.4
20260509135059 22 196 0.0 0.0 0.00 0.03 0.03 99 1011.4
20260509134555 21 197 0.0 0.0 0.00 0.03 0.03 99 1011.2
20260509134053 21 197 0.0 1.6 0.00 0.03 0.03 99 1011.2
20260509133550 21 197 0.0 0.0 0.00 0.03 0.03 99 1011.2
20260509133048 21 197 0.0 0.0 0.00 0.03 0.03 99 1011.2
20260509132546 21 197 0.0 0.0 0.00 0.03 0.03 99 1011.2
20260509132044 21 197 0.0 0.0 0.00 0.03 0.03 99 1011.2
20260509131539 21 196 0.0 0.0 0.00 0.03 0.03 99 1010.8
20260509131037 21 196 0.0 0.0 0.00 0.03 0.03 99 1011.2
20260509130532 21 197 0.0 0.0 0.00 0.03 0.03 99 1011.3
20260509130029 21 197 0.0 0.0 0.00 0.03 0.03 99 1011.3
20260509125526 21 196 1.6 1.6 0.00 0.03 0.03 99 1011.2
20260509125022 21 197 0.0 0.0 0.00 0.03 0.03 99 1011.2
20260509124519 22 196 0.0 0.0 0.00 0.03 0.03 99 1010.9
20260509124016 21 198 0.0 1.6 0.00 0.03 0.03 99 1010.9
20260509123514 21 198 1.6 1.6 0.00 0.03 0.03 99 1010.9
20260509123010 21 204 0.0 1.6 0.00 0.03 0.03 99 1010.8
20260509122507 21 225 0.0 1.6 0.00 0.03 0.03 99 1010.7
20260509122004 21 233 0.0 0.0 0.00 0.03 0.03 99 1010.9
20260509121500 21 225 0.0 0.0 0.00 0.03 0.03 99 1010.9
20260509120958 21 226 0.0 0.0 0.00 0.03 0.03 99 1011.2
20260509120456 21 209 0.0 0.0 0.00 0.03 0.03 99 1011.1
20260509115954 21 203 0.0 1.6 0.00 0.03 0.03 99 1011.1
20260509115451 21 170 3.2 4.8 0.00 0.03 0.03 99 1011.2
20260509114948 21 202 3.2 3.2 0.00 0.03 0.03 99 1010.9
20260509114446 21 190 1.6 1.6 0.00 0.03 0.03 99 1011.1
20260509113945 21 188 3.2 3.2 0.00 0.03 0.03 99 1011.3
20260509113442 21 184 1.6 3.2 0.00 0.03 0.03 99 1011.2
20260509112939 21 207 3.2 4.8 0.00 0.03 0.03 99 1011.3
20260509112437 21 206 1.6 1.6 0.00 0.03 0.03 99 1011.4
20260509111933 21 206 1.6 1.6 0.00 0.03 0.03 99 1011.5
20260509111431 21 213 1.6 3.2 0.00 0.03 0.03 99 1011.3
20260509110928 21 198 1.6 1.6 0.00 0.03 0.03 99 1011.4
20260509110423 21 207 1.6 3.2 0.00 0.03 0.03 99 1011.2
20260509105922 21 204 3.2 3.2 0.00 0.03 0.03 99 1011.2
20260509105420 21 193 1.6 1.6 0.00 0.03 0.03 99 1011.1
20260509104917 21 200 1.6 1.6 0.00 0.03 0.03 99 1010.7
20260509104414 21 193 0.0 1.6 0.00 0.03 0.03 99 1010.9
20260509103911 21 200 0.0 0.0 0.00 0.03 0.03 99 1010.8
20260509103408 21 200 0.0 0.0 0.00 0.03 0.03 99 1010.8
20260509102907 21 200 0.0 0.0 0.00 0.03 0.03 99 1010.8
20260509102404 21 200 0.0 0.0 0.00 0.03 0.03 99 1011.1
20260509101859 21 200 0.0 0.0 0.00 0.03 0.03 99 1011.1
20260509101355 21 200 0.0 0.0 0.13 0.03 0.03 99 1010.9
20260509100854 21 200 0.0 0.0 0.13 0.03 0.03 99 1010.7
20260509100350 21 200 1.6 1.6 0.00 0.00 0.00 99 1010.5
20260509095847 21 200 0.0 0.0 0.00 0.00 0.00 99 1010.3
20260509095345 21 200 1.6 1.6 0.00 0.00 0.00 99 1010.2
20260509094842 21 200 0.0 0.0 0.00 0.00 0.00 99 1010.4
20260509094338 21 200 0.0 0.0 0.00 0.00 0.00 99 1010.0
20260509093836 21 200 0.0 0.0 0.00 0.00 0.00 99 1010.2
20260509093332 21 200 0.0 1.6 0.00 0.00 0.00 99 1010.0
20260509092831 21 200 0.0 1.6 0.00 0.00 0.00 99 1010.3
20260509092329 22 200 0.0 1.6 0.00 0.00 0.00 99 1010.2
20260509091827 22 200 1.6 1.6 0.00 0.00 0.00 98 1010.4
20260509091323 22 200 1.6 1.6 0.00 0.00 0.00 98 1010.2
20260509090820 22 200 0.0 1.6 0.00 0.00 0.00 98 1010.0
20260509090318 22 200 0.0 0.0 0.00 0.00 0.00 98 1009.9
20260509085815 22 200 1.6 1.6 0.00 0.00 0.00 98 1010.1
20260509085313 22 200 0.0 0.0 0.00 0.00 0.00 99 1010.0
20260509084809 22 202 1.6 1.6 0.00 0.00 0.00 99 1009.9
20260509084306 22 227 0.0 1.6 0.00 0.00 0.00 99 1009.9
20260509083803 21 230 0.0 0.0 0.00 0.00 0.00 99 1010.1
20260509083300 21 230 0.0 0.0 0.00 0.00 0.00 99 1010.1
20260509082756 21 229 1.6 1.6 0.00 0.00 0.00 98 1010.3
20260509082253 21 229 0.0 0.0 0.00 0.00 0.00 98 1010.3
20260509081750 21 229 0.0 0.0 0.00 0.00 0.00 98 1010.2
20260509081248 21 229 0.0 0.0 0.00 0.00 0.00 98 1010.3
20260509080746 21 229 0.0 0.0 0.00 0.00 0.00 98 1010.1
20260509080243 21 229 0.0 0.0 0.00 0.00 0.00 98 1010.0
20260509075741 21 229 0.0 0.0 0.00 0.00 0.00 98 1010.2
20260509075238 22 230 1.6 1.6 0.00 0.00 0.00 98 1009.8
20260509074735 22 229 0.0 0.0 0.00 0.00 0.00 98 1009.9
20260509074233 22 229 0.0 0.0 0.00 0.00 0.00 98 1010.0
20260509073729 21 229 0.0 0.0 0.00 0.00 0.00 98 1010.1
20260509073225 22 229 0.0 0.0 0.00 0.00 0.00 98 1009.9
20260509072722 22 218 0.0 0.0 0.00 0.00 0.00 98 1010.0
20260509072219 22 218 0.0 0.0 0.00 0.00 0.00 97 1010.0
20260509071716 22 218 0.0 0.0 0.00 0.00 0.00 97 1009.9
20260509071213 22 218 0.0 1.6 0.00 0.00 0.00 97 1010.0
20260509070710 22 226 0.0 0.0 0.00 0.00 0.00 97 1010.0
20260509070206 22 215 0.0 0.0 0.00 0.00 0.00 97 1010.2
20260509065702 22 216 0.0 1.6 0.00 0.00 0.00 97 1010.1
20260509065158 22 227 0.0 0.0 0.00 0.00 0.00 96 1010.1
20260509064655 22 222 1.6 1.6 0.00 0.00 0.00 96 1010.2
20260509064153 22 222 1.6 1.6 0.00 0.00 0.00 96 1010.1
20260509063650 22 222 0.0 0.0 0.00 0.00 0.00 95 1010.4
20260509063146 22 201 1.6 1.6 0.00 0.00 0.00 94 1010.3
20260509062643 22 197 1.6 1.6 0.00 0.00 0.00 93 1010.5
20260509062141 22 203 0.0 0.0 0.00 0.00 0.00 92 1010.1
20260509061637 22 197 0.0 1.6 0.00 0.00 0.00 93 1010.2